TimePDT,TemperatureF,Dew PointF,Humidity,Sea Level PressureIn,VisibilityMPH,Wind Direction,Wind SpeedMPH,Gust SpeedMPH,PrecipitationIn,Events,Conditions,WindDirDegrees,DateUTC
12:15 AM,66.2,24.8,21,30.02,10.0,NNE,13.8,17.3,N/A,,Clear,20,2013-10-04 07:15:00
12:35 AM,66.2,24.8,21,30.02,10.0,North,6.9,-,N/A,,Clear,360,2013-10-04 07:35:00
12:55 AM,66.2,24.8,21,30.01,10.0,North,19.6,23.0,N/A,,Clear,360,2013-10-04 07:55:00
1:15 AM,66.2,26.6,23,30.01,10.0,North,18.4,26.5,N/A,,Clear,350,2013-10-04 08:15:00
1:35 AM,66.2,24.8,21,30.01,10.0,NNW,15.0,24.2,N/A,,Clear,340,2013-10-04 08:35:00
1:55 AM,66.2,24.8,21,30.01,10.0,NNW,20.7,26.5,N/A,,Clear,340,2013-10-04 08:55:00
2:15 AM,66.2,26.6,23,30.01,10.0,North,18.4,28.8,N/A,,Clear,350,2013-10-04 09:15:00
2:35 AM,66.2,24.8,21,30.01,10.0,North,20.7,-,N/A,,Clear,10,2013-10-04 09:35:00
2:55 AM,64.4,26.6,24,30.02,10.0,NNE,17.3,-,N/A,,Clear,20,2013-10-04 09:55:00
3:15 AM,62.6,26.6,26,30.03,10.0,North,10.4,-,N/A,,Clear,10,2013-10-04 10:15:00
3:35 AM,60.8,26.6,27,30.02,10.0,North,8.1,-,N/A,,Clear,360,2013-10-04 10:35:00
3:55 AM,60.8,26.6,27,30.02,10.0,NNW,9.2,-,N/A,,Clear,330,2013-10-04 10:55:00
4:15 AM,60.8,24.8,25,30.02,10.0,North,12.7,-,N/A,,Clear,360,2013-10-04 11:15:00
4:35 AM,62.6,24.8,24,30.02,10.0,North,8.1,-,N/A,,Clear,350,2013-10-04 11:35:00
4:55 AM,62.6,24.8,24,30.01,10.0,NNW,11.5,-,N/A,,Clear,340,2013-10-04 11:55:00
5:35 AM,62.6,23.0,22,30.01,10.0,NNW,13.8,-,N/A,,Clear,340,2013-10-04 12:35:00
5:55 AM,62.6,23.0,22,30.02,10.0,North,10.4,-,N/A,,Clear,350,2013-10-04 12:55:00
6:15 AM,62.6,23.0,22,30.02,10.0,NNW,6.9,-,N/A,,Clear,340,2013-10-04 13:15:00
6:35 AM,62.6,23.0,22,30.03,10.0,North,4.6,-,N/A,,Clear,350,2013-10-04 13:35:00
6:55 AM,62.6,23.0,22,30.03,10.0,North,13.8,24.2,N/A,,Clear,360,2013-10-04 13:55:00
7:15 AM,62.6,23.0,22,30.04,10.0,North,11.5,-,N/A,,Clear,350,2013-10-04 14:15:00
7:35 AM,64.4,23.0,21,30.04,10.0,NNE,12.7,23.0,N/A,,Clear,20,2013-10-04 14:35:00
7:55 AM,66.2,23.0,19,30.04,10.0,NNE,17.3,23.0,N/A,,Clear,30,2013-10-04 14:55:00
8:15 AM,66.2,23.0,19,30.06,10.0,NNE,13.8,20.7,N/A,,Clear,20,2013-10-04 15:15:00
8:35 AM,68.0,23.0,18,30.06,10.0,NNE,16.1,20.7,N/A,,Clear,20,2013-10-04 15:35:00
8:55 AM,69.8,23.0,17,30.07,10.0,NNE,11.5,17.3,N/A,,Clear,20,2013-10-04 15:55:00
9:15 AM,71.6,23.0,16,30.08,10.0,NNE,12.7,18.4,N/A,,Clear,30,2013-10-04 16:15:00
9:35 AM,71.6,23.0,16,30.08,10.0,NNE,11.5,18.4,N/A,,Clear,30,2013-10-04 16:35:00
9:55 AM,73.4,23.0,15,30.08,10.0,NNE,19.6,24.2,N/A,,Clear,30,2013-10-04 16:55:00
10:15 AM,73.4,23.0,15,30.09,10.0,NNE,12.7,24.2,N/A,,Clear,20,2013-10-04 17:15:00
10:35 AM,75.2,23.0,14,30.08,10.0,NNE,17.3,26.5,N/A,,Clear,20,2013-10-04 17:35:00
10:55 AM,77.0,23.0,13,30.09,10.0,NNE,13.8,21.9,N/A,,Clear,30,2013-10-04 17:55:00
11:15 AM,77.0,21.2,12,30.08,10.0,NE,20.7,24.2,N/A,,Clear,50,2013-10-04 18:15:00
11:35 AM,77.0,21.2,12,30.09,10.0,NE,21.9,26.5,N/A,,Clear,50,2013-10-04 18:35:00
11:55 AM,77.0,21.2,12,30.09,10.0,NE,19.6,24.2,N/A,,Clear,40,2013-10-04 18:55:00
12:15 PM,77.0,21.2,12,30.09,10.0,NE,15.0,24.2,N/A,,Clear,40,2013-10-04 19:15:00
12:35 PM,80.6,21.2,11,30.09,10.0,ENE,15.0,20.7,N/A,,Clear,60,2013-10-04 19:35:00
12:55 PM,78.8,21.2,12,30.08,10.0,ENE,17.3,21.9,N/A,,Clear,60,2013-10-04 19:55:00
1:15 PM,80.6,21.2,11,30.08,10.0,NE,12.7,23.0,N/A,,Clear,50,2013-10-04 20:15:00
1:35 PM,80.6,19.4,10,30.07,10.0,NE,13.8,-,N/A,,Clear,50,2013-10-04 20:35:00
1:55 PM,80.6,19.4,10,30.06,10.0,NE,15.0,20.7,N/A,,Clear,50,2013-10-04 20:55:00
2:15 PM,80.6,19.4,10,30.05,10.0,ENE,13.8,18.4,N/A,,Clear,70,2013-10-04 21:15:00
2:35 PM,82.4,19.4,10,30.06,10.0,NNE,6.9,-,N/A,,Clear,30,2013-10-04 21:35:00
2:55 PM,82.4,19.4,10,30.05,10.0,ENE,11.5,-,N/A,,Clear,60,2013-10-04 21:55:00
3:15 PM,82.4,17.6,9,30.05,10.0,NNE,9.2,-,N/A,,Clear,30,2013-10-04 22:15:00
3:35 PM,82.4,17.6,9,30.05,9.0,NE,6.9,-,N/A,,Clear,40,2013-10-04 22:35:00
3:55 PM,82.4,17.6,9,30.04,10.0,NNE,11.5,-,N/A,,Clear,30,2013-10-04 22:55:00
4:15 PM,82.4,17.6,9,30.04,10.0,NNE,10.4,-,N/A,,Clear,30,2013-10-04 23:15:00
4:35 PM,82.4,17.6,9,30.04,10.0,ENE,4.6,-,N/A,,Clear,60,2013-10-04 23:35:00
4:55 PM,82.4,19.4,10,30.04,10.0,NNE,10.4,17.3,N/A,,Clear,30,2013-10-04 23:55:00
5:15 PM,82.4,19.4,10,30.04,10.0,NNE,6.9,-,N/A,,Clear,20,2013-10-05 00:15:00
5:35 PM,82.4,19.4,10,30.04,10.0,ENE,9.2,-,N/A,,Clear,60,2013-10-05 00:35:00
5:55 PM,80.6,19.4,10,30.04,10.0,NE,5.8,-,N/A,,Clear,50,2013-10-05 00:55:00
6:15 PM,77.0,23.0,13,30.04,10.0,NNE,3.5,-,N/A,,Clear,20,2013-10-05 01:15:00
6:35 PM,73.4,23.0,15,30.04,10.0,NNW,3.5,-,N/A,,Clear,330,2013-10-05 01:35:00
6:55 PM,66.2,24.8,21,30.05,10.0,NNW,6.9,-,N/A,,Clear,330,2013-10-05 01:55:00
7:15 PM,66.2,23.0,19,30.05,10.0,West,3.5,-,N/A,,Clear,280,2013-10-05 02:15:00
7:35 PM,68.0,24.8,20,30.05,10.0,Calm,Calm,-,N/A,,Unknown,0,2013-10-05 02:35:00
7:55 PM,62.6,26.6,26,30.06,10.0,Calm,Calm,-,N/A,,Unknown,0,2013-10-05 02:55:00
8:15 PM,62.6,28.4,27,30.07,10.0,SSW,3.5,-,N/A,,Unknown,200,2013-10-05 03:15:00
8:35 PM,62.6,32.0,32,30.07,10.0,SSW,5.8,-,N/A,,Unknown,200,2013-10-05 03:35:00
8:55 PM,62.6,33.8,34,30.07,10.0,Calm,Calm,-,N/A,,Unknown,0,2013-10-05 03:55:00
9:15 PM,62.6,32.0,32,30.08,10.0,SSW,4.6,-,N/A,,Unknown,210,2013-10-05 04:15:00
9:35 PM,59.0,32.0,36,30.08,10.0,SW,3.5,-,N/A,,Unknown,220,2013-10-05 04:35:00
9:55 PM,59.0,32.0,36,30.08,10.0,SSW,5.8,-,N/A,,Unknown,200,2013-10-05 04:55:00
10:15 PM,59.0,32.0,36,30.08,10.0,SSW,5.8,-,N/A,,Unknown,200,2013-10-05 05:15:00
10:35 PM,57.2,33.8,41,30.08,10.0,South,6.9,-,N/A,,Unknown,190,2013-10-05 05:35:00
10:55 PM,57.2,28.4,33,30.09,10.0,South,5.8,-,N/A,,Unknown,190,2013-10-05 05:55:00
11:15 PM,57.2,30.2,36,30.09,10.0,South,6.9,-,N/A,,Unknown,180,2013-10-05 06:15:00
11:35 PM,55.4,32.0,41,30.10,10.0,South,4.6,-,N/A,,Unknown,180,2013-10-05 06:35:00
11:55 PM,57.2,32.0,38,30.10,10.0,SSW,5.8,-,N/A,,Unknown,200,2013-10-05 06:55:00